Regional Weather Roundup
Issued by NWS Green Bay, WI

Home | Current Version | Previous Version | Text Only | Print | Product List | Glossary On
Versions: 1 2 3 4 5 6 7 8 9 10 11 12 13 14 15 16 17 18 19 20 21 22 23 24 25 26 27 28 29 30 31 32 33 34 35 36 37 38 39 40 41 42 43 44 45 46 47 48 49 50
000
ASUS43 KGRB 301810
RWRGRB

NORTH-CENTRAL AND NORTHEAST WISCONSIN REGIONAL WEATHER ROUNDUP
NATIONAL WEATHER SERVICE GREEN BAY WI
100 PM CDT WED JUL 30 2014

WIZ005-009-010>012-018-019-301900-
NORTH CENTRAL WISCONSIN

CITY           SKY/WX    TMP DP  RH WIND       PRES   REMARKS
IRONWOOD       NOT AVBL
MANITOWISH WTR   N/A     68  51  54 W7        30.04F
ARBOR VITAE    PTSUNNY   72  53  51 W9        30.05F
EAGLE RIVER      N/A     68  47  46 NW5       30.04F
LAND O LAKES   PTSUNNY   69  45  41 NW9       30.04F
RHINELANDER      N/A     70  47  43 NW9       30.06F
PHILLIPS         N/A     67  51  56 CALM      30.06F
ANTIGO           N/A     69  51  53 NW9       30.06F
TOMAHAWK       PTSUNNY   68  51  56 CALM      30.07F
MERRILL          N/A     69  50  51 N5        30.06F
$$

WIZ013-073-301900-
NORTHEAST WISCONSIN

CITY           SKY/WX    TMP DP  RH WIND       PRES   REMARKS
IRON MOUNTAIN    N/A     72  44  36 W8        30.00F
MARINETTE      CLOUDY    66  52  59 S7        30.01F
OCONTO         PTSUNNY   67  54  63 E5        30.02F
$$

WIZ017-030-035>037-045-301900-
CENTRAL WISCONSIN

CITY           SKY/WX    TMP DP  RH WIND       PRES   REMARKS
MEDFORD          N/A     68  52  56 NW7       30.08F
WAUSAU           N/A     71  49  45 NW10      30.05F
MOSINEE        MOSUNNY   72  46  40 NW7       30.07F
MARSHFIELD     PTSUNNY   72  52  49 NW8       30.07F
WISC RAPIDS      N/A     74  49  41 N9        30.07F
STEVENS POINT    N/A     70  47  43 NW6       30.06F
WAUPACA          N/A     75  49  38 W5        30.04F
SHAWANO        CLOUDY    72  50  46 NE5       30.04F
CLINTONVILLE     N/A     72  46  40 NW6       30.04F
$$

WIZ038-039-048-051-301900-
FOX VALLEY

CITY           SKY/WX    TMP DP  RH WIND       PRES   REMARKS
NWS GREEN BAY    N/A     70  54  56 N12       30.04F
APPLETON       NOT AVBL
OSHKOSH        PTSUNNY   70  55  59 CALM      30.04F
FOND DU LAC      N/A     71  55  56 NE6       30.05F
$$

WIZ022-050-052-301900-
EAST CENTRAL WISCONSIN

CITY           SKY/WX    TMP DP  RH WIND       PRES   REMARKS
STURGEON BAY     N/A     66  48  52 NE5       30.04F
MANITOWOC      PTSUNNY   68  57  68 SE12      30.04F
SHEBOYGAN      PTSUNNY   72  54  53 N8        30.04F
$$

LMZ563-521-522-541>543-301900-
LAKESHORE

STATION/POSITION TIME  TEMP    WIND        PRES    VSBY  WAVE
                       AIR SEA DIR/SP/G                  HT/PER
                 (UTC) (F)     (DEG/KT/KT) (MB)    (MI)  (FT/S)
SHEBOYGAN LKSHOR 1800   61     130/  8/  8 1017.5F
KEWAUNEE LKSHORE 1800   58     170/  4/  5 1017.9S
ALGOMA MARINA    1700          110/  7/  8   N/A
NORTHPORT PIER   1800   64     320/  4/  5 1016.6F
N MID LAKE BUOY  1800   52 55  200/  4/  4 1016.3F         1
S GREEN BAY BUOY 1800   64 67  110/  4     1017.9F
SISTER BAY LKSHO 1800   70     300/  7/  7   N/A
CHAMBERS ISLAND  1800   64      60/  3/  5 1016.6F
MENOMINEE LKSHOR 1800   63     130/  8/  8 1017.3F
$$



USA.gov is the U.S. government's official web portal to all federal, state and local government web resources and services.